Regional Weather Roundup
Issued by NWS

Home | Current Version | Previous Version | Text Only | Print | Product List | Glossary Off
Versions: 1 2 3 4 5 6 7 8 9 10 11 12 13 14 15 16 17 18 19 20 21 22 23 24 25 26 27 28 29 30 31 32 33 34 35 36 37 38 39 40 41 42 43 44 45 46 47 48 49 50

000
ASUS44 KMEG 310900
RWRTN
TENNESSEE HOURLY STATE WEATHER ROUNDUP
NATIONAL WEATHER SERVICE MEMPHIS TN
400 AM CDT TUE MAY 31 2016

TNZ002-004-019-021-049-052-054-088>092-311000-
WEST TENNESSEE

CITY           SKY/WX    TMP DP  RH WIND       PRES   REMARKS
MEMPHIS INTL   CLOUDY    72  65  78 N6        29.94S
NWS MEMPHIS      N/A     71 N/A N/A MISG        N/A
JACKSON        CLOUDY    69  65  86 CALM      29.94S
DYERSBURG      MOCLDY    72  68  88 W3        29.94F
UNION CITY     CLEAR     68  66  94 CALM      29.94S
PARIS          CLEAR     64  61  88 CALM      29.96S
LEXINGTON      CLEAR     64  64 100 CALM      29.94S
$$

TNZ008-025-027-028-033-062-065-066-311000-
NORTH MIDDLE TENNESSEE

CITY           SKY/WX    TMP DP  RH WIND       PRES   REMARKS
NASHVILLE      MOCLDY    66  60  81 CALM      29.96R
CLARKSVILLE    MOCLDY    66  62  87 CALM      29.96R
COOKEVILLE     CLEAR     59  57  94 CALM      29.97R
CROSSVILLE     CLEAR     59  56  89 CALM      30.01R
$$

TNZ061-075-076-078-094-096-097-311000-
SOUTH MIDDLE TENNESSEE

CITY           SKY/WX    TMP DP  RH WIND       PRES   REMARKS
TULLAHOMA      CLEAR     59  59 100 CALM      29.97S
WINCHESTER     CLEAR     59  57  94 CALM      29.97R
SHELBYVILLE    CLEAR     61  61 100 CALM      29.96F
$$

TNZ017-018-042-046-047-311000-
NORTHEAST TENNESSEE

CITY           SKY/WX    TMP DP  RH WIND       PRES   REMARKS
TRI CITIES     MOCLDY    60  59  96 CALM      30.00S
$$

TNZ012-013-036-069-073-074-311000-
CENTRAL EAST TENNESSEE

CITY           SKY/WX    TMP DP  RH WIND       PRES   REMARKS
KNOXVILLE      CLEAR     64  62  93 NE3       29.95F
OAK RIDGE      PTCLDY    65  62  90 CALM      29.98S
GATLINBURG     CLEAR     61  57  88 CALM      29.97S
$$

TNZ083-085-099-311000-
SOUTHEAST TENNESSEE

CITY           SKY/WX    TMP DP  RH WIND       PRES   REMARKS
CHATTANOOGA    CLEAR     66  60  81 CALM      29.94S
$$

SKY/WX REPORTED AS FAIR MEANS FEW OR NO CLOUDS BELOW
12 THOUSAND FEET.





USA.gov is the U.S. government's official web portal to all federal, state and local government web resources and services.